Quick links : Home Page : Contact Us : Index : Site Map : Search Site : Ephemerides


(76008) 2000 DV22

Orbital Elements

The following orbital elements are taken from MPO 54747
 (76008) 2000 DV22
Epoch 2007 Oct. 27.0 TT = JDT 2454400.5                 MPC
M 349.73485              (2000.0)            P               Q
n   0.22970399     Peri.   92.36335     +0.36545122     -0.93061045
a   2.6405255      Node   336.17009     +0.83287605     +0.33662503
e   0.1079270      Incl.    2.87130     +0.41564756     +0.14369337
P   4.29           H   16.0           G   0.15           U   1
From 46 observations at 4 oppositions, 1998-2004, mean residual 0".59.
An explanation of the orbital elements is available.

These orbital elements are also available in forms suitable for loading into a number of popular planetarium-type software programs.


Ephemeris

The following ephemeris is at intervals of five days. A daily ephemeris covering the same time interval is also available.

Personalized ephemerides for this (and other) objects may be generated using the Minor Planet & Comet Ephemeris Service.

Date    TT    R. A. (2000) Decl.     Delta      r     Elong.  Phase     V
2008 08 22    09 36.47   +14 55.1    3.516    2.517     7.7     3.1    21.0
 
2009 01 19    12 51.98   -06 41.1    2.268    2.686   104.4    20.8    20.9
2009 01 24    12 53.91   -06 59.3    2.207    2.692   108.9    20.2    20.9
2009 01 29    12 55.27   -07 14.2    2.148    2.697   113.6    19.6    20.8
2009 02 03    12 56.03   -07 25.6    2.091    2.703   118.4    18.7    20.7
2009 02 08    12 56.17   -07 33.3    2.038    2.708   123.4    17.7    20.6
2009 02 13    12 55.68   -07 37.3    1.987    2.714   128.5    16.5    20.5
2009 02 18    12 54.55   -07 37.4    1.940    2.719   133.8    15.2    20.5
2009 02 23    12 52.79   -07 33.6    1.897    2.724   139.3    13.7    20.4
2009 02 28    12 50.42   -07 25.9    1.859    2.730   144.9    12.1    20.3
2009 03 05    12 47.48   -07 14.5    1.827    2.735   150.6    10.2    20.2
2009 03 10    12 44.06   -06 59.7    1.801    2.740   156.5     8.3    20.0
2009 03 15    12 40.23   -06 41.9    1.781    2.745   162.4     6.3    19.9
2009 03 20    12 36.08   -06 21.5    1.768    2.750   168.4     4.2    19.8
2009 03 25    12 31.74   -05 59.1    1.761    2.755   174.2     2.1    19.7
2009 03 30    12 27.32   -05 35.6    1.762    2.760   177.4     0.9    19.6
2009 04 04    12 22.96   -05 11.5    1.771    2.765   172.7     2.6    19.7
2009 04 09    12 18.79   -04 47.9    1.786    2.770   166.8     4.7    19.9
2009 04 14    12 14.90   -04 25.3    1.808    2.775   161.0     6.8    20.0
2009 04 19    12 11.40   -04 04.3    1.836    2.780   155.2     8.7    20.1
2009 04 24    12 08.35   -03 45.7    1.871    2.785   149.5    10.6    20.3
2009 04 29    12 05.83   -03 29.9    1.911    2.789   144.0    12.3    20.4
2009 05 04    12 03.88   -03 17.1    1.957    2.794   138.6    13.8    20.5
2009 05 09    12 02.52   -03 07.8    2.007    2.798   133.4    15.2    20.6
2009 05 14    12 01.74   -03 01.9    2.061    2.803   128.3    16.4    20.7
2009 05 19    12 01.55   -02 59.5    2.119    2.807   123.5    17.5    20.8
2009 05 24    12 01.93   -03 00.5    2.180    2.811   118.8    18.4    20.9
2009 05 29    12 02.86   -03 05.0    2.244    2.816   114.2    19.2    21.0

Back to Observable Critical-List Minor Planets

MPC

Valid HTML 4.01!